Time,TemperatureF,DewpointF,PressureIn,WindDirection,WindDirectionDegrees,WindSpeedMPH,WindSpeedGustMPH,Humidity,HourlyPrecipIn,Conditions,Clouds,dailyrainin,SoftwareType,DateUTC
2013-02-18 00:09:00,45.0,32.0,29.83,SSE,167,6.0,15.0,61,0.00,,,0.00,weatherlink.com 1.10,2013-02-18 06:09:00,
2013-02-18 00:24:00,44.8,32.0,29.83,South,169,7.0,14.0,62,0.00,,,0.00,weatherlink.com 1.10,2013-02-18 06:24:00,
2013-02-18 00:40:00,44.6,33.0,29.82,SSE,161,7.0,12.0,63,0.00,,,0.00,weatherlink.com 1.10,2013-02-18 06:40:00,
2013-02-18 00:55:00,44.5,32.0,29.82,South,175,9.0,12.0,63,0.00,,,0.00,weatherlink.com 1.10,2013-02-18 06:55:00,
2013-02-18 01:10:00,44.5,33.0,29.81,South,187,7.0,15.0,64,0.00,,,0.00,weatherlink.com 1.10,2013-02-18 07:10:00,
2013-02-18 01:25:00,44.7,33.0,29.81,SSE,161,6.0,13.0,64,0.00,,,0.00,weatherlink.com 1.10,2013-02-18 07:25:00,
2013-02-18 01:40:00,44.7,33.0,29.80,South,184,4.0,10.0,65,0.00,,,0.00,weatherlink.com 1.10,2013-02-18 07:40:00,
2013-02-18 01:55:00,44.3,33.0,29.80,SSE,156,8.0,12.0,65,0.00,,,0.00,weatherlink.com 1.10,2013-02-18 07:55:00,
2013-02-18 02:10:00,44.1,33.0,29.79,South,177,8.0,9.0,66,0.00,,,0.00,weatherlink.com 1.10,2013-02-18 08:10:00,
2013-02-18 02:25:00,44.1,34.0,29.78,SSE,156,3.0,10.0,67,0.00,,,0.00,weatherlink.com 1.10,2013-02-18 08:25:00,
2013-02-18 02:40:00,44.2,34.0,29.78,SSW,194,4.0,13.0,67,0.00,,,0.00,weatherlink.com 1.10,2013-02-18 08:40:00,
2013-02-18 02:55:00,44.5,34.0,29.77,SSE,165,7.0,11.0,67,0.00,,,0.00,weatherlink.com 1.10,2013-02-18 08:55:00,
2013-02-18 03:10:00,44.5,34.0,29.76,SSE,168,5.0,12.0,67,0.00,,,0.00,weatherlink.com 1.10,2013-02-18 09:10:00,
2013-02-18 03:25:00,44.3,34.0,29.76,SSE,164,3.0,10.0,67,0.00,,,0.00,weatherlink.com 1.10,2013-02-18 09:25:00,
2013-02-18 03:40:00,44.6,34.0,29.74,South,185,5.0,13.0,67,0.00,,,0.00,weatherlink.com 1.10,2013-02-18 09:40:00,
2013-02-18 03:55:00,45.1,34.0,29.73,South,181,6.0,16.0,66,0.00,,,0.00,weatherlink.com 1.10,2013-02-18 09:55:00,
2013-02-18 04:10:00,44.8,34.0,29.73,SSE,164,3.0,14.0,67,0.00,,,0.00,weatherlink.com 1.10,2013-02-18 10:10:00,
2013-02-18 04:25:00,44.7,34.0,29.73,South,172,6.0,15.0,67,0.00,,,0.00,weatherlink.com 1.10,2013-02-18 10:25:00,
2013-02-18 04:40:00,44.9,35.0,29.72,South,169,9.0,14.0,68,0.00,,,0.00,weatherlink.com 1.10,2013-02-18 10:40:00,
2013-02-18 04:55:00,45.0,35.0,29.72,South,173,4.0,14.0,68,0.00,,,0.00,weatherlink.com 1.10,2013-02-18 10:55:00,
2013-02-18 05:10:00,45.0,35.0,29.72,South,170,7.0,13.0,68,0.00,,,0.00,weatherlink.com 1.10,2013-02-18 11:10:00,
2013-02-18 05:25:00,45.2,35.0,29.72,South,172,6.0,13.0,67,0.00,,,0.00,weatherlink.com 1.10,2013-02-18 11:25:00,
2013-02-18 05:40:00,45.5,35.0,29.71,South,175,2.0,13.0,67,0.00,,,0.00,weatherlink.com 1.10,2013-02-18 11:40:00,
2013-02-18 05:55:00,45.6,35.0,29.71,SE,134,4.0,12.0,67,0.00,,,0.00,weatherlink.com 1.10,2013-02-18 11:55:00,
2013-02-18 06:10:00,46.1,36.0,29.70,SSE,159,6.0,16.0,67,0.00,,,0.00,weatherlink.com 1.10,2013-02-18 12:10:00,
2013-02-18 06:25:00,46.2,36.0,29.70,South,169,11.0,16.0,67,0.00,,,0.00,weatherlink.com 1.10,2013-02-18 12:25:00,
2013-02-18 06:40:00,46.6,36.0,29.70,South,186,9.0,18.0,67,0.00,,,0.00,weatherlink.com 1.10,2013-02-18 12:40:00,
2013-02-18 06:55:00,46.7,37.0,29.69,SSE,153,5.0,19.0,68,0.00,,,0.00,weatherlink.com 1.10,2013-02-18 12:55:00,
2013-02-18 07:10:00,46.8,37.0,29.69,SSE,165,7.0,18.0,68,0.00,,,0.00,weatherlink.com 1.10,2013-02-18 13:10:00,
2013-02-18 07:26:00,47.1,37.0,29.69,SSE,155,8.0,21.0,68,0.00,,,0.00,weatherlink.com 1.10,2013-02-18 13:26:00,
2013-02-18 07:41:00,47.6,37.0,29.70,South,171,9.0,20.0,68,0.00,,,0.00,weatherlink.com 1.10,2013-02-18 13:41:00,
2013-02-18 07:56:00,48.1,38.0,29.70,South,190,9.0,17.0,68,0.00,,,0.00,weatherlink.com 1.10,2013-02-18 13:56:00,
2013-02-18 08:11:00,48.5,38.0,29.70,SSE,167,18.0,22.0,68,0.00,,,0.00,weatherlink.com 1.10,2013-02-18 14:11:00,
2013-02-18 08:26:00,49.1,39.0,29.69,South,186,14.0,22.0,68,0.00,,,0.00,weatherlink.com 1.10,2013-02-18 14:26:00,
2013-02-18 08:41:00,49.5,39.0,29.69,South,189,17.0,20.0,68,0.00,,,0.00,weatherlink.com 1.10,2013-02-18 14:41:00,
2013-02-18 08:56:00,50.0,40.0,29.70,SW,215,10.0,24.0,68,0.00,,,0.00,weatherlink.com 1.10,2013-02-18 14:56:00,
2013-02-18 09:11:00,50.2,40.0,29.70,SSE,158,5.0,14.0,69,0.00,,,0.00,weatherlink.com 1.10,2013-02-18 15:11:00,
2013-02-18 09:26:00,50.6,40.0,29.69,South,182,6.0,16.0,68,0.00,,,0.00,weatherlink.com 1.10,2013-02-18 15:26:00,
2013-02-18 09:41:00,51.1,41.0,29.68,South,186,11.0,21.0,69,0.00,,,0.00,weatherlink.com 1.10,2013-02-18 15:41:00,
2013-02-18 09:56:00,51.8,42.0,29.68,SSW,197,9.0,17.0,69,0.00,,,0.00,weatherlink.com 1.10,2013-02-18 15:56:00,
2013-02-18 10:11:00,52.3,42.0,29.67,South,188,5.0,22.0,69,0.00,,,0.00,weatherlink.com 1.10,2013-02-18 16:11:00,
2013-02-18 10:26:00,52.7,43.0,29.67,South,184,9.0,17.0,69,0.00,,,0.00,weatherlink.com 1.10,2013-02-18 16:26:00,
2013-02-18 10:41:00,53.0,43.0,29.67,South,188,11.0,16.0,69,0.00,,,0.00,weatherlink.com 1.10,2013-02-18 16:41:00,
2013-02-18 10:56:00,53.2,43.0,29.66,South,174,15.0,19.0,69,0.00,,,0.00,weatherlink.com 1.10,2013-02-18 16:56:00,
2013-02-18 11:11:00,53.2,44.0,29.66,SSW,212,8.0,22.0,70,0.00,,,0.00,weatherlink.com 1.10,2013-02-18 17:11:00,
2013-02-18 11:26:00,53.2,44.0,29.66,SSE,164,12.0,20.0,70,0.00,,,0.00,weatherlink.com 1.10,2013-02-18 17:26:00,
2013-02-18 11:41:00,53.2,44.0,29.64,SSW,194,14.0,18.0,72,0.00,,,0.00,weatherlink.com 1.10,2013-02-18 17:41:00,
2013-02-18 11:56:00,53.4,45.0,29.63,SSW,202,7.0,16.0,72,0.00,,,0.00,weatherlink.com 1.10,2013-02-18 17:56:00,
2013-02-18 12:12:00,53.7,45.0,29.62,South,169,9.0,20.0,73,0.00,,,0.00,weatherlink.com 1.10,2013-02-18 18:12:00,
2013-02-18 12:27:00,53.3,46.0,29.61,SSE,166,11.0,16.0,76,0.00,,,0.00,weatherlink.com 1.10,2013-02-18 18:27:00,
2013-02-18 12:42:00,52.6,47.0,29.60,SSE,153,10.0,12.0,80,0.00,,,0.00,weatherlink.com 1.10,2013-02-18 18:42:00,
2013-02-18 12:57:00,51.4,47.0,29.59,South,176,9.0,14.0,86,0.02,,,0.02,weatherlink.com 1.10,2013-02-18 18:57:00,
2013-02-18 13:12:00,50.7,47.0,29.59,South,180,11.0,15.0,88,0.04,,,0.04,weatherlink.com 1.10,2013-02-18 19:12:00,
2013-02-18 13:27:00,50.5,48.0,29.57,SSE,163,8.0,16.0,90,0.07,,,0.07,weatherlink.com 1.10,2013-02-18 19:27:00,
2013-02-18 13:42:00,50.3,48.0,29.56,SSW,195,7.0,11.0,91,0.09,,,0.09,weatherlink.com 1.10,2013-02-18 19:42:00,
2013-02-18 13:57:00,50.4,48.0,29.54,SSE,163,5.0,9.0,91,0.08,,,0.10,weatherlink.com 1.10,2013-02-18 19:57:00,
2013-02-18 14:12:00,51.0,48.0,29.53,SSW,192,9.0,21.0,88,0.05,,,0.10,weatherlink.com 1.10,2013-02-18 20:12:00,
2013-02-18 14:27:00,51.4,48.0,29.52,SSE,167,8.0,17.0,87,0.03,,,0.10,weatherlink.com 1.10,2013-02-18 20:27:00,
2013-02-18 14:42:00,51.2,48.0,29.51,SSE,155,7.0,20.0,88,0.01,,,0.10,weatherlink.com 1.10,2013-02-18 20:42:00,
2013-02-18 14:57:00,50.5,48.0,29.50,SSE,161,9.0,17.0,91,0.02,,,0.12,weatherlink.com 1.10,2013-02-18 20:57:00,
2013-02-18 15:12:00,50.0,48.0,29.49,South,171,12.0,18.0,93,0.03,,,0.13,weatherlink.com 1.10,2013-02-18 21:12:00,
2013-02-18 15:28:00,49.9,48.0,29.48,South,171,8.0,19.0,93,0.03,,,0.13,weatherlink.com 1.10,2013-02-18 21:28:00,
2013-02-18 15:43:00,50.0,48.0,29.49,SW,221,9.0,16.0,93,0.03,,,0.13,weatherlink.com 1.10,2013-02-18 21:43:00,
2013-02-18 15:58:00,49.8,48.0,29.52,SW,215,10.0,22.0,94,0.16,,,0.28,weatherlink.com 1.10,2013-02-18 21:58:00,
2013-02-18 16:13:00,47.7,45.0,29.53,NW,311,10.0,18.0,91,0.19,,,0.32,weatherlink.com 1.10,2013-02-18 22:13:00,
2013-02-18 16:28:00,45.1,43.0,29.57,WNW,296,9.0,16.0,92,0.20,,,0.33,weatherlink.com 1.10,2013-02-18 22:28:00,
2013-02-18 16:43:00,42.3,40.0,29.60,NW,319,11.0,20.0,92,0.20,,,0.33,weatherlink.com 1.10,2013-02-18 22:43:00,
2013-02-18 16:58:00,40.5,39.0,29.63,WNW,290,8.0,20.0,93,0.05,,,0.33,weatherlink.com 1.10,2013-02-18 22:58:00,
2013-02-18 17:13:00,39.6,38.0,29.66,NW,306,11.0,19.0,93,0.02,,,0.34,weatherlink.com 1.10,2013-02-18 23:13:00,
2013-02-18 17:28:00,38.7,36.0,29.68,NW,306,10.0,20.0,91,0.01,,,0.34,weatherlink.com 1.10,2013-02-18 23:28:00,
2013-02-18 17:43:00,37.9,36.0,29.70,NW,306,6.0,23.0,91,0.01,,,0.34,weatherlink.com 1.10,2013-02-18 23:43:00,
2013-02-18 17:58:00,37.5,35.0,29.71,NW,308,6.0,21.0,91,0.01,,,0.34,weatherlink.com 1.10,2013-02-18 23:58:00,
2013-02-18 18:13:00,37.6,35.0,29.72,NW,311,10.0,17.0,91,0.00,,,0.34,weatherlink.com 1.10,2013-02-19 00:13:00,
2013-02-18 18:28:00,37.6,35.0,29.74,WNW,294,9.0,18.0,91,0.00,,,0.34,weatherlink.com 1.10,2013-02-19 00:28:00,
2013-02-18 18:43:00,37.7,35.0,29.75,WNW,294,12.0,26.0,90,0.00,,,0.34,weatherlink.com 1.10,2013-02-19 00:43:00,
2013-02-18 18:58:00,36.7,34.0,29.77,NW,326,12.0,27.0,89,0.00,,,0.34,weatherlink.com 1.10,2013-02-19 00:58:00,
2013-02-18 19:13:00,36.1,33.0,29.78,WNW,297,9.0,18.0,89,0.00,,,0.34,weatherlink.com 1.10,2013-02-19 01:13:00,
2013-02-18 19:28:00,34.5,31.0,29.80,NW,310,8.0,23.0,87,0.00,,,0.34,weatherlink.com 1.10,2013-02-19 01:28:00,
2013-02-18 19:43:00,33.5,30.0,29.81,NW,309,7.0,24.0,86,0.00,,,0.34,weatherlink.com 1.10,2013-02-19 01:43:00,
2013-02-18 19:58:00,32.8,29.0,29.83,NNW,338,10.0,22.0,84,0.00,,,0.34,weatherlink.com 1.10,2013-02-19 01:58:00,
2013-02-18 20:13:00,32.5,29.0,29.84,WNW,296,14.0,21.0,85,0.00,,,0.34,weatherlink.com 1.10,2013-02-19 02:13:00,
2013-02-18 20:28:00,32.6,29.0,29.85,WNW,303,12.0,16.0,85,0.00,,,0.34,weatherlink.com 1.10,2013-02-19 02:28:00,
2013-02-18 20:43:00,32.5,28.0,29.86,WNW,283,13.0,18.0,83,0.00,,,0.34,weatherlink.com 1.10,2013-02-19 02:43:00,
2013-02-18 20:58:00,31.5,26.0,29.88,NNW,333,16.0,18.0,80,0.00,,,0.34,weatherlink.com 1.10,2013-02-19 02:58:00,
2013-02-18 21:13:00,31.1,26.0,29.89,NW,307,3.0,18.0,82,0.00,,,0.34,weatherlink.com 1.10,2013-02-19 03:13:00,
2013-02-18 21:29:00,31.3,26.0,29.90,WNW,300,8.0,18.0,82,0.00,,,0.34,weatherlink.com 1.10,2013-02-19 03:29:00,
2013-02-18 21:44:00,30.9,25.0,29.91,WSW,257,12.0,24.0,77,0.00,,,0.34,weatherlink.com 1.10,2013-02-19 03:44:00,
2013-02-18 21:59:00,30.0,23.0,29.92,NW,306,12.0,21.0,76,0.00,,,0.34,weatherlink.com 1.10,2013-02-19 03:59:00,
2013-02-18 22:14:00,29.5,23.0,29.93,NNW,340,2.0,16.0,76,0.00,,,0.34,weatherlink.com 1.10,2013-02-19 04:14:00,
2013-02-18 22:29:00,29.4,23.0,29.93,WNW,302,10.0,20.0,77,0.00,,,0.34,weatherlink.com 1.10,2013-02-19 04:29:00,
2013-02-18 22:44:00,29.6,24.0,29.93,WNW,286,10.0,13.0,79,0.00,,,0.34,weatherlink.com 1.10,2013-02-19 04:44:00,
2013-02-18 22:59:00,29.6,24.0,29.94,West,274,11.0,13.0,79,0.00,,,0.34,weatherlink.com 1.10,2013-02-19 04:59:00,
2013-02-18 23:14:00,29.0,22.0,29.95,West,281,9.0,20.0,76,0.00,,,0.34,weatherlink.com 1.10,2013-02-19 05:14:00,
2013-02-18 23:29:00,28.5,22.0,29.96,West,277,9.0,19.0,75,0.00,,,0.34,weatherlink.com 1.10,2013-02-19 05:29:00,
2013-02-18 23:44:00,27.8,21.0,29.97,NW,307,10.0,22.0,75,0.00,,,0.34,weatherlink.com 1.10,2013-02-19 05:44:00,
2013-02-18 23:59:00,27.6,20.0,29.97,WNW,288,14.0,20.0,74,0.00,,,0.34,weatherlink.com 1.10,2013-02-19 05:59:00,